Powrót do katalogu

SL-12 R/B(2)

AktywnyGEO
NORAD 25048·ROCKET BODY·🇷🇺 Russia

Wystrzelony Nov 12, 1997 z Baikonur Cosmodrome

Loading…

TLE

ŚwieżeSource: Space-Track

Epoka: Sep 12, 2026, 21:18 UTC

1 25048U 97070D   26255.88788757  .00000089  00000-0  00000-0 0  9997
2 25048  14.7251 353.5748 0014772 170.5978 199.3829  0.99633041104904

Śledź SL-12 R/B(2) w czasie rzeczywistym z AllMySat

Download on the App Store